Regional Weather Roundup
Issued by NWS

Home | Current Version | Previous Version | Graphics & Text | Print | Product List | Glossary On
Versions: 1 2 3 4 5 6 7 8 9 10 11 12 13 14 15 16 17 18 19 20 21 22 23 24 25 26 27 28
000
ASUS45 KBOI 180910
RWRID
WEATHER ROUNDUP FOR IDAHO
NATIONAL WEATHER SERVICE BOISE ID
300 AM MDT FRI APR 18 2014

NOTE: "FAIR" INDICATES FEW OR NO CLOUDS BELOW 12000 FEET
WITH NO SIGNIFICANT WEATHER AND/OR OBSTRUCTIONS TO VISIBILITY

IDZ012-014-181000-
SOUTHWEST IDAHO


CITY           SKY/WX    TMP DP  RH WIND       PRES   REMARKS
BOISE          CLOUDY    49  39  68 W12       29.90R
CALDWELL       CLOUDY    50  36  57 W13       29.92R
MOUNTAIN HOME  CLOUDY    50  49  98 NW13      29.89R
$$

IDZ016-017-181000-
SOUTHCENTRAL IDAHO


CITY           SKY/WX    TMP DP  RH WIND       PRES   REMARKS
BURLEY         LGT RAIN  49  42  77 W15G30    29.85R
JEROME         LGT RAIN  46  43  89 W18G26    29.87R
TWIN FALLS     LGT RAIN  49  41  74 W22       29.89R
$$

IDZ019>023-181000-
SOUTHEAST IDAHO


CITY           SKY/WX    TMP DP  RH WIND       PRES   REMARKS
IDAHO FALLS    CLOUDY    54  36  50 S7        29.79F
POCATELLO      CLEAR     56  39  53 SW23      29.81S
REXBURG        CLOUDY    53  32  44 S12       29.79F
$$

IDZ006-010-011-018-031-032-181000-
CENTRAL IDAHO MOUNTAINS


CITY           SKY/WX    TMP DP  RH WIND       PRES   REMARKS
MCCALL         CLOUDY    40  36  86 CALM      29.84S
HAILEY         LGT RAIN  46  41  81 CALM      29.81F
STANLEY          N/A     35  34  96 CALM      29.85S
SALMON         CLOUDY    48  43  81 N14       29.75R
CHALLIS        CLOUDY    49  41  74 CALM      29.76F
$$

IDZ002-004-006-007-026-181000-
NORTHERN IDAHO


CITY           SKY/WX    TMP DP  RH WIND       PRES   REMARKS
LEWISTON       LGT RAIN  50  41  71 S6        29.82F
LOWELL           N/A     48  46  93 CALM      29.87S
COEUR D`ALENE  CLOUDY    46  39  76 SW20G25   29.75S
MULLAN PASS    LGT SNOW  32  31  96 SW8       29.73F VSB 3/4 WCI  25
$$



USA.gov is the U.S. government's official web portal to all federal, state and local government web resources and services.